Simultaneous Nadir Overpasses (SNOs) Predictions

Prediction of SNOs between AQUA and METOP-A Satellite Orbit:

Table of predicted SNOs for the next 14.0 days since TLE Epoch: 5/6/2016
Index Date (AQUA) Time (AQUA) Lat,Lon (AQUA) SZA (AQUA ) Date (METOP-A) Time (METOP-A) Lat,Lon (METOP-A) SZA (METOP-A ) Distance(km) Time Diff (sec)
1 05/08/2016 13:40:16 73.86, -30.82 56.54 05/08/2016 13:39:27 73.86, -30.84 56.54 0.51 49
2 05/08/2016 14:29:43 -73.93, 136.67 123.41 05/08/2016 14:30:07 -73.94, 136.68 123.40 1.36 24
3 05/11/2016 09:14:26 73.87, 35.60 55.82 05/11/2016 09:13:49 73.86, 35.56 55.81 2.12 37
4 05/11/2016 10:03:53 -73.94,-156.90 124.13 05/11/2016 10:04:29 -73.94,-156.91 124.13 0.37 36
5 05/14/2016 04:48:37 73.90, 102.00 55.15 05/14/2016 04:48:11 73.90, 102.08 55.15 2.48 26
6 05/14/2016 05:38:04 -73.96, -90.50 124.80 05/14/2016 05:38:52 -73.93, -90.52 124.83 3.20 48
7 05/16/2016 23:33:13 -73.53, 1.61 125.89 05/16/2016 23:32:03 -73.45, 0.09 125.91 49.05 70
8 05/17/2016 00:22:47 73.88, 168.48 54.48 05/17/2016 00:22:34 73.89, 168.46 54.49 0.99 13
9 05/17/2016 01:12:14 -73.95, -24.02 125.46 05/17/2016 01:13:14 -73.97, -24.02 125.44 3.02 60
10 05/19/2016 19:07:28 -73.84, 67.40 126.17 05/19/2016 19:06:17 -73.83, 67.39 126.16 0.66 71
11 05/19/2016 19:56:56 73.88,-125.07 53.88 05/19/2016 19:56:56 73.88,-125.17 53.88 3.15 0




NCC Satellite Simultaneous Nadir Overpasses (SNOs) Prediction Service
